Domov               UVHVVR             MKGP            O straneh              
ZDRAVSTVENO VARSTVO RASTLIN
  MREŽA AGROMET. POSTAJ
 ► PROGNOSTIČNA OBVESTILA
AGROMETEOROLOŠKI PODATKI -
ARSO
OBVLADOVANJE TVEGANJ ZARADI
NEUGODNIH VREMENSKIH RAZMER
  ► NARAVNE NESREČE
  ► SUŠA/MOČA
  ► NAMAKANJE
  ► ŽLED (gozdarstvo)
KARTOGRAFSKI PRIKAZI
SPLETNE POVEZAVE
PROJEKTI IN PUBLIKACIJE

AGROMETEOROLOŠKA MREŽA: VREMENSKE POSTAJE IN FENOLOŠKA OPAZOVANJA

Pregled podatkov za lokacijo Pesnica, meteorološka postaja 25158

Pregled senzorjev na lokaciji

ID Ime Zadnja
vrednost
Datum
zadnje
spremembe
Tip
senzorja
913 Omočenost lista (U) 5 U 15.12.2017 20:30 A730WET
914 Temperatura 2 m (°C) 2,66 °C 15.12.2017 20:30 Generic -40 - +60 °C
915 Relativna vlaga 2 m (% RH) 90,4 % RH 15.12.2017 20:30 Generic 0 - 100 %
916 Padavine (mm) 0,6 mm 15.12.2017 20:30 Generic 0.2 mm
3981 Hitrost vetra (km/h) 6,89 km/h 15.12.2017 20:30 Generic 200 km/h

Pregled podatkov zadnjih 24 ur

Zap.
št.
Datum in čas Pesnica
Hitrost
vetra
Omočenost
lista
Padavine Relativna
vlaga
2
m
Temperatura
2
m
0 15.12.2017 20:30 6,89 5 0,6 90,4 2,66
1 15.12.2017 20:00 10,4 9 0,4 89,87 3,05
2 15.12.2017 19:30 3,76 7 0,2 93,04 2,95
3 15.12.2017 19:00 2,15 7 0,6 94,87 2,78
4 15.12.2017 18:30 2,2 8 0,4 95,38 2,69
5 15.12.2017 18:00 0,54 7 0 95,21 2,56
6 15.12.2017 17:30 0 6 0,2 94,46 2,59
7 15.12.2017 17:00 0 6 0 94,38 2,61
8 15.12.2017 16:30 0 6 0,2 94,07 2,71
9 15.12.2017 16:00 0,29 5 0,8 94,24 2,95
10 15.12.2017 15:30 0 6 0 94,26 3,13
11 15.12.2017 15:00 0 4 0,4 93,9 3,2
12 15.12.2017 14:30 0,05 3 1,8 93,97 3,32
13 15.12.2017 14:00 0 3 1,4 93,55 3,52
14 15.12.2017 13:30 4,59 5 0,8 91,84 3,61
15 15.12.2017 13:00 2 5 0,2 91,04 3,61
16 15.12.2017 12:30 4,93 5 1 90,77 3,57
17 15.12.2017 12:00 8,6 8 0 89,96 4,05
18 15.12.2017 11:30 6,54 7 0,8 91,06 3,3
19 15.12.2017 11:00 2,83 10 0,6 92,65 2,52
20 15.12.2017 10:30 1,32 10 0 90,99 3,69
21 15.12.2017 10:00 0,15 10 0,2 91,11 3,2
22 15.12.2017 09:30 0,1 10 0 90,35 2,54
23 15.12.2017 09:00 1,32 10 0 89,67 2,64
24 15.12.2017 08:30 2,98 10 0 89,74 1,9
25 15.12.2017 08:00 3,27 10 0 93,31 0,88
26 15.12.2017 07:30 3,32 10 0 93,94 1,78
27 15.12.2017 07:00 0,83 10 0 97,29 2,27
28 15.12.2017 06:30 1,03 10 0 98,27 1,2
29 15.12.2017 06:00 1,76 10 0 98,19 0,71
30 15.12.2017 05:30 2,25 10 0 98,29 0,63
31 15.12.2017 05:00 1,47 10 0 98,07 0,76
32 15.12.2017 04:30 1,17 10 0 97,58 0,9
33 15.12.2017 04:00 1,32 10 0 97,36 1
34 15.12.2017 03:30 0,59 10 0 97,19 0,66
35 15.12.2017 03:00 1,56 10 0 97,02 0,56
36 15.12.2017 02:30 0,59 10 0 96,78 0,63
37 15.12.2017 02:00 0,44 10 0 96,9 0,85
38 15.12.2017 01:30 0,29 10 0 96,8 0,56
39 15.12.2017 01:00 10 0 96,41 0,37
40 15.12.2017 00:30 10 0 96,34 0,27
41 15.12.2017 00:00 10 0 94,95 0,78
42 14.12.2017 23:30 10 0 94,99 0,95
43 14.12.2017 23:00 0,39 10 0 94,04 1,32
44 14.12.2017 22:30 0,68 10 0 93,14 1,71
45 14.12.2017 22:00 0,05 10 0 93,14 1,66
46 14.12.2017 21:30 0,29 10 0 89,04 2,52
47 14.12.2017 21:00 0,05 10 0 89,69 2,74
© 2011 Ministrstvo za kmetijstvo, gozdarstvo in prehrano. Vse pravice pridržane.